Breckenridge, TX

6:52 AM CST on January 16, 2018 (GMT -0600)
Stephens County

Weather History for KBKD - April, 2011

Change the Weather History Date:

Friday, April 15, 2011

  Actual Average (KMWL) Record (KMWL)
Temperature  
Mean Temperature 64 °F -  
Max Temperature 75 °F 74 °F 96 °F (2006)
Min Temperature 53 °F 51 °F 30 °F (2014)
Degree Days  
Heating Degree Days 1    
Growing Degree Days 14 (Base 50)    
Moisture  
Dew Point 20 °F    
Average Humidity 22    
Maximum Humidity 51    
Minimum Humidity 9    
Precipitation  
Precipitation 0.00 in - - ()
Sea Level Pressure  
Sea Level Pressure 29.92 in    
Wind  
Wind Speed 16 mph (NNW)    
Max Wind Speed 36 mph    
Max Gust Speed 61 mph    
Visibility 8 miles    
Events      
Averages and records for this station are not official NWS values.
T = Trace of Precipitation, MM = Missing Value Source: NWS Daily Summary

Daily Weather History Graph

Daily Weather History Graph

Search for Another Location

Airport or City:

Trip Planner

Search our weather history database for the weather conditions in past years. The results will help you decide how hot, cold, wet, or windy it might be!

Date:

Astronomy

Apr. 15, 2011 Rise Set
Actual Time 7:06 AM CDT 8:05 PM CDT
Civil Twilight 6:40 AM CDT 8:30 PM CDT
Nautical Twilight 6:11 AM CDT 9:00 PM CDT
Astronomical Twilight 5:40 AM CDT 9:31 PM CDT
Moon 5:41 PM CDT (4/15) 5:07 AM CDT (4/15)
Length of Visible Light 13h 49m
Length of Day
12h 59m
Waxing Gibbous, 91% of the Moon is Illuminated
Apr 15
Waxing Gibbous
Apr 17
Full
Apr 24
Last Quarter
May 3
New
May 10
First Quarter

Hourly Weather History & Observations

Time (CDT) Temp. Dew Point Humidity Pressure Visibility Wind Dir Wind Speed Gust Speed Precip Events Conditions
12:15 AM 68.0 °F 21.2 °F 17% 29.72 in 10.0 mi NNW 16.1 mph 21.9 mph N/A   Clear
12:35 AM 68.0 °F 32.0 °F 26% 29.73 in 10.0 mi North 19.6 mph 26.5 mph N/A   Clear
12:55 AM 66.2 °F 32.0 °F 28% 29.75 in 10.0 mi North 15.0 mph 25.3 mph N/A   Clear
1:35 AM 62.6 °F 32.0 °F 32% 29.77 in 10.0 mi NNW 10.4 mph 24.2 mph N/A   Clear
1:55 AM 60.8 °F 32.0 °F 34% 29.79 in 10.0 mi North 6.9 mph - N/A   Clear
2:35 AM 59.0 °F 33.8 °F 39% 29.80 in 10.0 mi NNW 5.8 mph - N/A   Clear
2:55 AM 59.0 °F 33.8 °F 39% 29.80 in 10.0 mi NW 3.5 mph - N/A   Clear
3:15 AM 57.2 °F 33.8 °F 41% 29.80 in 10.0 mi NW 5.8 mph - N/A   Clear
3:35 AM 57.2 °F 33.8 °F 41% 29.80 in 10.0 mi NW 5.8 mph - N/A   Clear
3:55 AM 55.4 °F 33.8 °F 44% 29.80 in 10.0 mi WNW 5.8 mph - N/A   Clear
4:35 AM 53.6 °F 35.6 °F 51% 29.82 in 10.0 mi NW 11.5 mph 17.3 mph N/A   Clear
4:55 AM 55.4 °F 33.8 °F 44% 29.82 in 10.0 mi WNW 6.9 mph - N/A   Clear
5:15 AM 53.6 °F 33.8 °F 47% 29.84 in 10.0 mi NW 12.7 mph 16.1 mph N/A   Clear
5:35 AM 55.4 °F 33.8 °F 44% 29.84 in 10.0 mi NW 9.2 mph - N/A   Clear
5:55 AM 55.4 °F 33.8 °F 44% 29.84 in 10.0 mi NW 6.9 mph - N/A   Clear
6:15 AM 55.4 °F 33.8 °F 44% 29.86 in 10.0 mi NW 8.1 mph 18.4 mph N/A   Clear
6:55 AM 53.6 °F 32.0 °F 44% 29.87 in 10.0 mi WNW 9.2 mph - N/A   Clear
7:35 AM 55.4 °F 32.0 °F 41% 29.89 in 10.0 mi WNW 13.8 mph 18.4 mph N/A   Clear
7:55 AM 55.4 °F 32.0 °F 41% 29.90 in 10.0 mi WNW 13.8 mph 24.2 mph N/A   Clear
8:35 AM 59.0 °F 30.2 °F 34% 29.92 in 10.0 mi NW 16.1 mph 27.6 mph N/A   Clear
8:55 AM 60.8 °F 30.2 °F 31% 29.93 in 10.0 mi NW 21.9 mph 28.8 mph N/A   Clear
9:15 AM 60.8 °F 28.4 °F 29% 29.93 in 10.0 mi NNW 19.6 mph 36.8 mph N/A   Clear
9:35 AM 62.6 °F 26.6 °F 26% 29.93 in 10.0 mi NNW 20.7 mph 33.4 mph N/A   Clear
9:55 AM 64.4 °F 24.8 °F 22% 29.94 in 10.0 mi NNW 24.2 mph 39.1 mph N/A   Clear
10:35 AM 66.2 °F 19.4 °F 17% 29.95 in 5.0 mi NNW 26.5 mph 46.0 mph N/A   Haze
10:55 AM 68.0 °F 19.4 °F 16% 29.95 in 10.0 mi NNW 25.3 mph 41.4 mph N/A   Unknown
11:15 AM 68.0 °F 15.8 °F 13% 29.96 in 7.0 mi NNW 31.1 mph 44.9 mph N/A   Clear
11:35 AM 69.8 °F 17.6 °F 14% 29.96 in 7.0 mi NNW 29.9 mph 47.2 mph N/A   Clear
11:55 AM 69.8 °F 15.8 °F 13% 29.96 in 7.0 mi NW 29.9 mph 49.5 mph N/A   Clear
12:15 PM 71.6 °F 14.0 °F 11% 29.96 in 7.0 mi NW 29.9 mph 48.3 mph N/A   Clear
12:35 PM 71.6 °F 12.2 °F 10% 29.96 in 7.0 mi NW 28.8 mph 61.0 mph N/A   Scattered Clouds
12:55 PM 71.6 °F 12.2 °F 10% 29.96 in 7.0 mi NW 27.6 mph 46.0 mph N/A   Mostly Cloudy
1:15 PM 71.6 °F 10.4 °F 9% 29.96 in 7.0 mi NNW 35.7 mph 47.2 mph N/A   Mostly Cloudy
1:55 PM 73.4 °F 12.2 °F 10% 29.95 in 7.0 mi NW 25.3 mph 43.7 mph N/A   Overcast
2:15 PM 73.4 °F 10.4 °F 9% 29.95 in 5.0 mi NW 25.3 mph 47.2 mph N/A   Haze
2:35 PM 73.4 °F 12.2 °F 10% 29.95 in 7.0 mi NNW 25.3 mph 46.0 mph N/A   Overcast
2:55 PM 75.2 °F 12.2 °F 9% 29.95 in 5.0 mi NNW 18.4 mph 38.0 mph N/A   Haze
3:15 PM 75.2 °F 12.2 °F 9% 29.95 in 7.0 mi NW 31.1 mph 46.0 mph N/A   Overcast
3:55 PM 73.4 °F 12.2 °F 10% 29.94 in 7.0 mi NNW 28.8 mph 42.6 mph N/A   Overcast
4:15 PM 73.4 °F 12.2 °F 10% 29.94 in 7.0 mi NNW 23.0 mph 39.1 mph N/A   Overcast
4:35 PM 73.4 °F 12.2 °F 10% 29.94 in 7.0 mi NNW 33.4 mph 40.3 mph N/A   Overcast
4:55 PM 73.4 °F 12.2 °F 10% 29.94 in 5.0 mi NNW 28.8 mph 36.8 mph N/A   Haze
5:15 PM 73.4 °F 12.2 °F 10% 29.95 in 7.0 mi NNW 16.1 mph 38.0 mph N/A   Overcast
5:55 PM 73.4 °F 10.4 °F 9% 29.96 in 5.0 mi NNW 19.6 mph 33.4 mph N/A   Haze
6:15 PM 71.6 °F 10.4 °F 9% 29.96 in 5.0 mi NNW 20.7 mph 36.8 mph N/A   Haze
6:35 PM 71.6 °F 8.6 °F 9% 29.97 in 5.0 mi North 21.9 mph 29.9 mph N/A   Haze
6:55 PM 69.8 °F 8.6 °F 9% 29.98 in 4.0 mi North 18.4 mph 29.9 mph N/A   Haze
7:35 PM 68.0 °F 8.6 °F 10% 29.99 in 5.0 mi North 12.7 mph 26.5 mph N/A   Haze
7:55 PM 68.0 °F 8.6 °F 10% 30.00 in 5.0 mi North 16.1 mph 24.2 mph N/A   Haze
8:15 PM 66.2 °F 8.6 °F 11% 30.00 in 5.0 mi North 13.8 mph 24.2 mph N/A   Haze
8:35 PM 64.4 °F 8.6 °F 11% 30.00 in 7.0 mi North 11.5 mph - N/A   Overcast
8:55 PM 64.4 °F 10.4 °F 12% 30.01 in 7.0 mi North 6.9 mph - N/A   Overcast
9:15 PM 62.6 °F 10.4 °F 13% 30.02 in 7.0 mi North 6.9 mph - N/A   Overcast
9:35 PM 62.6 °F 10.4 °F 13% 30.03 in 7.0 mi North 8.1 mph - N/A   Overcast
9:55 PM 60.8 °F 12.2 °F 15% 30.05 in 7.0 mi North 5.8 mph - N/A   Scattered Clouds
10:35 PM 60.8 °F 12.2 °F 15% 30.05 in 7.0 mi North 9.2 mph - N/A   Clear
10:55 PM 59.0 °F 10.4 °F 15% 30.06 in 10.0 mi NNE 8.1 mph - N/A   Clear
11:15 PM 57.2 °F 10.4 °F 16% 30.05 in 10.0 mi NNE 8.1 mph - N/A   Clear
11:35 PM 55.4 °F 10.4 °F 17% 30.05 in 10.0 mi NNE 8.1 mph - N/A   Clear